This is the latest recevied weather packets stored in our database for station/object WA1OUI. If no packets are shown the sender has not sent any weather packets the latest 10 day(s).
| Time | Temp. | Humidity | Pressure | Rain* | Wind** | Luminosity | Snow |
|---|---|---|---|---|---|---|---|
| 1778087441 | 17.22° C | 83% | 1006.8 hPa | 1.78 mm | - | 61 W/m² | - |
| 1778087138 | 17.78° C | 80% | 1006.9 hPa | 1.27 mm | - | 55 W/m² | - |
| 1778086835 | 17.78° C | 77% | 1006.9 hPa | 0.51 mm | - | 53 W/m² | - |
| 1778086534 | 18.33° C | 75% | 1006.9 hPa | 0 mm | - | 66 W/m² | - |
| 1778086229 | 18.33° C | 74% | 1007 hPa | 0 mm | - | 69 W/m² | - |
| 1778085926 | 18.89° C | 73% | 1006.9 hPa | 0 mm | - | 72 W/m² | - |
| 1778085624 | 18.89° C | 71% | 1006.8 hPa | 0 mm | - | 76 W/m² | - |
| 1778085320 | 18.89° C | 70% | 1006.6 hPa | 0.51 mm | - | 184 W/m² | - |
| 1778085016 | 19.44° C | 70% | 1006.9 hPa | 0.51 mm | - | 116 W/m² | - |
| 1778084712 | 19.44° C | 70% | 1006.5 hPa | 0 mm | - | 153 W/m² | - |
| 1778084409 | 19.44° C | 70% | 1006.7 hPa | 0 mm | - | 101 W/m² | - |
| 1778084107 | 20° C | 67% | 1006.5 hPa | 0 mm | - | 120 W/m² | - |
| 1778083804 | 20° C | 66% | 1006.4 hPa | 0 mm | - | 134 W/m² | - |
| 1778083501 | 20° C | 67% | 1006.7 hPa | 0 mm | - | 173 W/m² | - |
| 1778083198 | 20° C | 66% | 1006.7 hPa | 0 mm | - | 154 W/m² | - |
| 1778082897 | 20° C | 66% | 1006.9 hPa | 0 mm | - | 160 W/m² | - |
| 1778081788 | 20° C | 67% | 1007.3 hPa | 0 mm | - | 125 W/m² | - |
| 1778081485 | 20° C | 66% | 1007 hPa | 0 mm | - | 127 W/m² | - |
| 1778081182 | 20° C | 66% | 1007.1 hPa | 0 mm | - | 189 W/m² | - |
| 1778080880 | 20° C | 66% | 1007.1 hPa | 0 mm | - | 274 W/m² | - |
| 1778080579 | 20° C | 66% | 1007.3 hPa | 0 mm | - | 162 W/m² | - |
| 1778080275 | 20° C | 67% | 1007.1 hPa | 0 mm | - | 162 W/m² | - |
| 1778079972 | 20° C | 68% | 1007.1 hPa | 0 mm | - | 187 W/m² | - |
| 1778079669 | 20° C | 67% | 1007.2 hPa | 0 mm | - | 220 W/m² | - |
| 1778079366 | 20° C | 68% | 1007.2 hPa | 0 mm | - | 200 W/m² | - |
* Rain latest hour (hover to see other rain measurements)
** Current wind speed in m/s (hover to see current wind gust speed)